User: anonymous
Location: Trois-Rivi�res
(46.3500°N, 72.5500°W)
Time: 12:55:55
(UTC-04:00)
Language:

Cosmos 1975 - Orbit

View from above orbital plane
View from above orbital plane
View from above satellite
View from above satellite

Ground track
Ground track

The orbit data is extracted from the following two-line orbital elements,

1 19573U 88093A   14237.45105841  .00001668  00000-0  12964-3 0  2852
2 19573 082.5197 257.0373 0016163 182.9362 177.1771 15.00589013405589
Epoch (UTC): 25 August 2014 10:49:31
Eccentricity: 0.0016163
inclination: 82.5197°
perigee height: 554 km
apogee height: 576 km
right ascension of ascending node: 257.0373°
argument of perigee: 182.9362°
revolutions per day: 15.00589013
mean anomaly at epoch: 177.1771°
orbit number at epoch: 40558

The dashed part of the orbit path shows where the satellite is in the earth's shadow,  

DLR